This is the latest recevied weather packets stored in our database for station/object OH7GGX-14. If no packets are shown the sender has not sent any weather packets the latest 10 day(s).
| Time | Temp. | Humidity | Pressure | Rain* | Wind** | Luminosity | Snow |
|---|---|---|---|---|---|---|---|
| 1777744900 | 14.44° C | 52% | 1004.3 hPa | 0 mm | - | - | - |
| 1777744300 | 15° C | 50% | 1004.4 hPa | 0 mm | - | - | - |
| 1777743700 | 15° C | 48% | 1004.5 hPa | 0 mm | - | - | - |
| 1777743100 | 15.56° C | 47% | 1004.6 hPa | 0 mm | - | - | - |
| 1777742500 | 15.56° C | 46% | 1004.6 hPa | 0 mm | - | - | - |
| 1777741900 | 15.56° C | 45% | 1004.5 hPa | 0 mm | - | - | - |
| 1777741300 | 16.11° C | 45% | 1004.5 hPa | 0 mm | - | - | - |
| 1777740700 | 16.11° C | 44% | 1004.6 hPa | 0 mm | - | - | - |
| 1777740100 | 16.67° C | 43% | 1004.6 hPa | 0 mm | - | - | - |
| 1777739500 | 16.67° C | 43% | 1004.7 hPa | 0 mm | - | - | - |
| 1777738900 | 16.67° C | 42% | 1004.7 hPa | 0 mm | - | - | - |
| 1777738300 | 16.67° C | 42% | 1004.8 hPa | 0 mm | - | - | - |
| 1777737700 | 16.67° C | 41% | 1005.1 hPa | 0 mm | - | - | - |
| 1777737100 | 17.22° C | 41% | 1005.1 hPa | 0 mm | - | - | - |
| 1777736500 | 17.22° C | 40% | 1005.3 hPa | 0 mm | - | - | - |
| 1777735900 | 17.22° C | 39% | 1005.3 hPa | 0 mm | - | - | - |
| 1777735300 | 17.78° C | 38% | 1005.5 hPa | 0 mm | - | - | - |
| 1777734700 | 18.33° C | 36% | 1005.6 hPa | 0 mm | - | - | - |
| 1777734100 | 18.33° C | 36% | 1005.7 hPa | 0 mm | - | - | - |
| 1777733500 | 18.33° C | 35% | 1005.8 hPa | 0 mm | - | - | - |
| 1777732900 | 18.89° C | 34% | 1005.9 hPa | 0 mm | - | - | - |
| 1777732300 | 18.89° C | 34% | 1005.9 hPa | 0 mm | - | - | - |
| 1777731700 | 19.44° C | 33% | 1006 hPa | 0 mm | - | - | - |
| 1777731100 | 19.44° C | 32% | 1006.1 hPa | 0 mm | - | - | - |
| 1777730500 | 19.44° C | 31% | 1006.1 hPa | 0 mm | - | - | - |
* Rain latest hour (hover to see other rain measurements)
** Current wind speed in m/s (hover to see current wind gust speed)